Change the Weather History Date:

Thursday, September 5, 2013

  Actual Average (KGLD) Record (KGLD)
Temperature  
Mean Temperature 83 °F 69 °F  
Max Temperature 98 °F 84 °F 104 °F (1931)
Min Temperature 68 °F 55 °F 40 °F (1961)
Degree Days  
Heating Degree Days 0 1  
Month to date heating degree days 5  
Since 1 July heating degree days 17  
Cooling Degree Days 18 6  
Month to date cooling degree days 30  
Year to date cooling degree days 863  
Growing Degree Days 33 (Base 50)    
Moisture  
Dew Point 55 °F    
Average Humidity 42    
Maximum Humidity 61    
Minimum Humidity 22    
Precipitation  
Precipitation 0.00 in 0.04 in 2.30 in (1926)
Month to date precipitation 0.24  
Year to date precipitation 16.14  
Snow  
Snow 0.00 in 0.00 in - ()
Month to date snowfall 0.0  
Since 1 July snowfall 0.0  
Since 1 September snowfall 0.0  
Snow Depth -    
Sea Level Pressure  
Sea Level Pressure 30.14 in    
Wind  
Wind Speed 12 mph (SSE)    
Max Wind Speed 23 mph    
Max Gust Speed 29 mph    
Visibility 10 miles    
Events      
T = Trace of Precipitation, MM = Missing Value Source: NWS Daily Summary

Daily Weather History Graph

Daily Weather History Graph

Search for Another Location

Airport or City:

Trip Planner

Search our weather history database for the weather conditions in past years. The results will help you decide how hot, cold, wet, or windy it might be!

Date:

Astronomy

Sep. 05, 2013 Rise Set
Actual Time 7:16 AM CDT 8:08 PM CDT
Civil Twilight 6:49 AM CDT 8:35 PM CDT
Nautical Twilight 6:16 AM CDT 9:07 PM CDT
Astronomical Twilight 5:43 AM CDT 9:41 PM CDT
Moon 7:29 AM CDT (9/5) 8:01 PM CDT (9/5)
Length of Visible Light 13h 46m
Length of Day
12h 51m
New Moon, 0% of the Moon is Illuminated
Sep 5
New Moon
Sep 12
First Quarter
Sep 19
Full
Sep 26
Last Quarter
Oct 4
New

Hourly Weather History & Observations

Time (CDT) Temp. Heat Index Dew Point Humidity Pressure Visibility Wind Dir Wind Speed Gust Speed Precip Events Conditions
12:15 AM 77.0 °F - 59.0 °F 54% 30.15 in 10.0 mi South 15.0 mph - N/A   Clear
12:35 AM 75.2 °F - 59.0 °F 57% 30.16 in 10.0 mi South 11.5 mph - N/A   Clear
12:55 AM 75.2 °F - 59.0 °F 57% 30.17 in 10.0 mi SSE 12.7 mph - N/A   Clear
1:15 AM 73.4 °F - 59.0 °F 61% 30.17 in 10.0 mi South 10.4 mph - N/A   Clear
1:35 AM 73.4 °F - 59.0 °F 61% 30.18 in 10.0 mi South 10.4 mph - N/A   Clear
1:55 AM 73.4 °F - 57.2 °F 57% 30.18 in 10.0 mi South 12.7 mph 17.3 mph N/A   Clear
2:15 AM 73.4 °F - 57.2 °F 57% 30.18 in 10.0 mi South 10.4 mph - N/A   Clear
2:35 AM 73.4 °F - 57.2 °F 57% 30.17 in 10.0 mi South 11.5 mph 17.3 mph N/A   Clear
2:55 AM 73.4 °F - 55.4 °F 53% 30.16 in 10.0 mi South 13.8 mph - N/A   Clear
3:15 AM 73.4 °F - 55.4 °F 53% 30.16 in 10.0 mi South 12.7 mph - N/A   Clear
3:35 AM 73.4 °F - 55.4 °F 53% 30.16 in 10.0 mi South 11.5 mph - N/A   Clear
3:55 AM 73.4 °F - 55.4 °F 53% 30.15 in 10.0 mi South 10.4 mph - N/A   Clear
4:15 AM 73.4 °F - 55.4 °F 53% 30.15 in 10.0 mi South 10.4 mph - N/A   Scattered Clouds
4:35 AM 71.6 °F - 55.4 °F 57% 30.15 in 10.0 mi South 9.2 mph - N/A   Clear
4:55 AM 71.6 °F - 53.6 °F 53% 30.15 in 10.0 mi SSE 8.1 mph - N/A   Mostly Cloudy
5:15 AM 71.6 °F - 53.6 °F 53% 30.16 in 10.0 mi SSE 8.1 mph - N/A   Mostly Cloudy
5:35 AM 69.8 °F - 53.6 °F 56% 30.16 in 10.0 mi South 3.5 mph - N/A   Scattered Clouds
5:55 AM 68.0 °F - 53.6 °F 60% 30.15 in 10.0 mi Calm Calm - N/A   Scattered Clouds
6:15 AM 69.8 °F - 53.6 °F 56% 30.15 in 10.0 mi SSE 9.2 mph - N/A   Clear
6:35 AM 68.0 °F - 53.6 °F 60% 30.15 in 10.0 mi SSE 6.9 mph - N/A   Clear
6:55 AM 68.0 °F - 53.6 °F 60% 30.15 in 10.0 mi South 4.6 mph - N/A   Clear
7:15 AM 68.0 °F - 53.6 °F 60% 30.16 in 10.0 mi South 4.6 mph - N/A   Clear
7:35 AM 68.0 °F - 53.6 °F 60% 30.16 in 10.0 mi South 5.8 mph - N/A   Clear
7:55 AM 68.0 °F - 53.6 °F 60% 30.16 in 10.0 mi SSE 4.6 mph - N/A   Clear
8:15 AM 69.8 °F - 55.4 °F 60% 30.16 in 10.0 mi South 9.2 mph - N/A   Clear
8:35 AM 71.6 °F - 55.4 °F 57% 30.16 in 10.0 mi South 8.1 mph - N/A   Clear
8:55 AM 73.4 °F - 55.4 °F 53% 30.16 in 10.0 mi SSW 10.4 mph - N/A   Clear
9:15 AM 73.4 °F - 55.4 °F 53% 30.17 in 10.0 mi South 10.4 mph - N/A   Clear
9:35 AM 75.2 °F - 55.4 °F 50% 30.16 in 10.0 mi South 10.4 mph - N/A   Clear
9:55 AM 77.0 °F - 55.4 °F 47% 30.17 in 10.0 mi South 9.2 mph - N/A   Clear
10:15 AM 78.8 °F - 55.4 °F 44% 30.18 in 10.0 mi South 6.9 mph - N/A   Clear
10:35 AM 78.8 °F - 55.4 °F 44% 30.18 in 10.0 mi South 8.1 mph - N/A   Clear
10:55 AM 80.6 °F 80.5 °F 55.4 °F 42% 30.18 in 10.0 mi South 8.1 mph - N/A   Clear
11:15 AM 80.6 °F 80.5 °F 55.4 °F 42% 30.18 in 10.0 mi SSE 10.4 mph - N/A   Clear
11:35 AM 82.4 °F 81.7 °F 55.4 °F 39% 30.18 in 10.0 mi SSE 10.4 mph - N/A   Clear
11:55 AM 86.0 °F 84.5 °F 55.4 °F 35% 30.17 in 10.0 mi South 10.4 mph - N/A   Clear
12:15 PM 87.8 °F 86.1 °F 55.4 °F 33% 30.17 in 10.0 mi SSE 13.8 mph 18.4 mph N/A   Clear
12:35 PM 87.8 °F 86.1 °F 55.4 °F 33% 30.16 in 10.0 mi SSE 16.1 mph - N/A   Clear
12:55 PM 91.4 °F 89.4 °F 55.4 °F 29% 30.16 in 10.0 mi SE 16.1 mph 21.9 mph N/A   Clear
1:15 PM 91.4 °F 89.4 °F 55.4 °F 29% 30.15 in 10.0 mi SE 18.4 mph - N/A   Clear
1:35 PM 95.0 °F 92.7 °F 53.6 °F 25% 30.15 in 10.0 mi SSE 17.3 mph - N/A   Clear
1:55 PM 96.8 °F 94.4 °F 53.6 °F 23% 30.15 in 10.0 mi SSE 20.7 mph 26.5 mph N/A   Clear
2:15 PM 95.0 °F 92.7 °F 53.6 °F 25% 30.15 in 10.0 mi SSE 23.0 mph 27.6 mph N/A   Clear
2:35 PM 96.8 °F 94.4 °F 53.6 °F 23% 30.14 in 10.0 mi SSE 20.7 mph - N/A   Clear
2:55 PM 96.8 °F 95.1 °F 55.4 °F 25% 30.13 in 10.0 mi SSE 15.0 mph 24.2 mph N/A   Clear
3:15 PM 95.0 °F 92.7 °F 53.6 °F 25% 30.13 in 10.0 mi SE 18.4 mph 25.3 mph N/A   Clear
3:35 PM 96.8 °F 94.4 °F 53.6 °F 23% 30.12 in 10.0 mi SE 20.7 mph 28.8 mph N/A   Clear
3:55 PM 98.6 °F 96.4 °F 53.6 °F 22% 30.12 in 10.0 mi SSE 15.0 mph 25.3 mph N/A   Clear
4:15 PM 96.8 °F 94.4 °F 53.6 °F 23% 30.12 in 10.0 mi SSE 19.6 mph 24.2 mph N/A   Clear
4:35 PM 96.8 °F 94.4 °F 53.6 °F 23% 30.11 in 10.0 mi SSE 17.3 mph 25.3 mph N/A   Clear
4:55 PM 96.8 °F 94.4 °F 53.6 °F 23% 30.11 in 10.0 mi South 18.4 mph 23.0 mph N/A   Clear
5:15 PM 96.8 °F 94.4 °F 53.6 °F 23% 30.10 in 10.0 mi SSE 23.0 mph 27.6 mph N/A   Clear
5:35 PM 96.8 °F 94.4 °F 53.6 °F 23% 30.10 in 10.0 mi South 15.0 mph 24.2 mph N/A   Clear
5:55 PM 95.0 °F 92.7 °F 53.6 °F 25% 30.10 in 10.0 mi SSE 15.0 mph 19.6 mph N/A   Clear
6:15 PM 96.8 °F 94.4 °F 53.6 °F 23% 30.10 in 10.0 mi SSE 18.4 mph 23.0 mph N/A   Clear
6:35 PM 95.0 °F 92.7 °F 53.6 °F 25% 30.10 in 10.0 mi SSE 17.3 mph - N/A   Clear
6:55 PM 95.0 °F 92.7 °F 53.6 °F 25% 30.10 in 10.0 mi South 17.3 mph 24.2 mph N/A   Clear
7:15 PM 93.2 °F 90.8 °F 53.6 °F 26% 30.09 in 10.0 mi SSE 17.3 mph 21.9 mph N/A   Clear
7:35 PM 91.4 °F 89.1 °F 53.6 °F 28% 30.09 in 10.0 mi SSE 16.1 mph 21.9 mph N/A   Clear
7:55 PM 89.6 °F 87.3 °F 53.6 °F 29% 30.09 in 10.0 mi SSE 12.7 mph - N/A   Clear
8:15 PM 87.8 °F - 51.8 °F 29% 30.10 in 10.0 mi SSE 11.5 mph - N/A   Clear
8:35 PM 86.0 °F 84.2 °F 53.6 °F 33% 30.10 in 10.0 mi SSE 12.7 mph - N/A   Clear
8:55 PM 84.2 °F 82.8 °F 53.6 °F 35% 30.11 in 10.0 mi SSE 11.5 mph - N/A   Clear
9:15 PM 82.4 °F 81.4 °F 53.6 °F 37% 30.11 in 10.0 mi SSE 12.7 mph - N/A   Clear
9:35 PM 80.6 °F 80.3 °F 53.6 °F 39% 30.12 in 10.0 mi SSE 12.7 mph - N/A   Clear
9:55 PM 80.6 °F 80.3 °F 53.6 °F 39% 30.12 in 10.0 mi SSE 11.5 mph - N/A   Clear
10:15 PM 78.8 °F - 51.8 °F 39% 30.12 in 10.0 mi SSE 12.7 mph - N/A   Clear
10:35 PM 78.8 °F - 51.8 °F 39% 30.12 in 10.0 mi SSE 13.8 mph - N/A   Clear
10:55 PM 77.0 °F - 53.6 °F 44% 30.13 in 10.0 mi SSE 13.8 mph - N/A   Clear
11:15 PM 77.0 °F - 53.6 °F 44% 30.13 in 10.0 mi SSE 12.7 mph - N/A   Clear
11:35 PM 77.0 °F - 53.6 °F 44% 30.13 in 10.0 mi SSE 15.0 mph - N/A   Clear
11:55 PM 77.0 °F - 51.8 °F 41% 30.13 in 10.0 mi SSE 13.8 mph - N/A   Clear